sat.trackr.live / text

‹ back to catalog

STARLINK-31713

NORAD 59381 · 2024-062H

PAYLOAD ACTIVE UNKNOWN

§ Identity

Operator
Country
US
Launch date
2024-04-02
Launch site
AFWTR
Launch vehicle
Mass (kg)
RCS (m²)

Purposes: comms

External: N2YO · Heavens-Above · Gunter

§ Orbital elements

Epoch: 2026-05-25T01:18:42.848640Z

Period
93.85 min
Inclination
53.1613°
Eccentricity
0.0001117
Mean motion
15.34389104 rev/d
Perigee alt
462.0 km
Apogee alt
463.5 km
Semi-major
6,840.9 km
B*
1.5269e-5
RAAN
263.0614°
Arg perigee
88.1218°
Mean anomaly
271.9912°
Rev number
12,129

§ Raw data

STARLINK-317131 59381U 24062H   26145.05466260  .00000140  00000+0  15269-4 0  99982 59381  53.1613 263.0614 0001117  88.1218 271.9912 15.34389104121291

JSON: /api/v1/satellites/59381 · /tle

For live sub-satellite position, see the globe view (requires WebGL).

§ Visibility from observer

Set your observer location to see the next 7 days of passes ≥ 10°. The values pass through the URL so the page stays shareable.

No JS? Fill the form by hand. The geolocation button needs JavaScript.